Location: Bratsk-Energetik
(56.3300°N, 101.7600°E)
Time: 16:27:57
(UTC+08:00)

ISS - Visible Passes

Search period start: 24 February 2018 00:00
Search period end: 06 March 2018 00:00
Orbit: 402 x 407 km, 51.6° (Epoch: 24 February)

Date Brightness Start Highest point End Pass type
(mag) Time Alt. Az. Time Alt. Az. Time Alt. Az.
02 Mar -1.1 06:58:40 10° S 07:00:44 16° SSE 07:02:48 10° ESE visible
03 Mar -1.0 06:07:39 10° SSE 06:08:43 11° SE 06:09:48 10° SE visible
04 Mar -1.8 06:49:40 10° SSW 06:52:19 23° SSE 06:54:58 10° ESE visible
05 Mar -1.5 05:58:51 14° S 06:00:13 17° SSE 06:02:30 10° ESE visible
